Weather History for Ashtabula, OH

Change the Weather History Date:

Saturday, July 20, 2013

  Actual Average (KYNG) Record (KYNG)
Temperature  
Mean Temperature 72 °F 71 °F  
Max Temperature 79 °F 82 °F 95 °F (1991)
Min Temperature 66 °F 60 °F 46 °F (1965)
Degree Days  
Heating Degree Days 0 0  
Month to date heating degree days 8  
Since 1 June heating degree days 77  
Since 1 July heating degree days 8  
Cooling Degree Days 8 6  
Month to date cooling degree days 120  
Year to date cooling degree days 269  
Since 1 June cooling degree days 230  
Growing Degree Days 22 (Base 50)    
Moisture  
Dew Point 66 °F    
Average Humidity 81    
Maximum Humidity 94    
Minimum Humidity 62    
Precipitation  
Precipitation 1.77 in 0.15 in 1.65 in (1973)
Month to date precipitation 2.83  
Year to date precipitation 21.50  
Snow  
Snow 0.00 in 0.00 in - ()
Month to date snowfall 0.0  
Since 1 June snowfall 0.0  
Since 1 July snowfall 0.0  
Snow Depth -    
Sea Level Pressure  
Sea Level Pressure 29.87 in    
Wind  
Wind Speed 8 mph (WSW)    
Max Wind Speed 18 mph    
Max Gust Speed 29 mph    
Visibility 8 miles    
Events Fog , Rain    
T = Trace of Precipitation, MM = Missing Value Source: NWS Daily Summary

Daily Weather History Graph

Daily Weather History Graph

Search for Another Location

Airport:

Trip Planner

Search our weather history database for the weather conditions in past years. The results will help you decide how hot, cold, wet, or windy it might be!

Date:

Astronomy

Jul. 20, 2013 Rise Set
Actual Time 6:05 AM EDT 8:52 PM EDT
Civil Twilight 5:33 AM EDT 9:24 PM EDT
Nautical Twilight 4:51 AM EDT 10:05 PM EDT
Astronomical Twilight 4:04 AM EDT 10:52 PM EDT
Moon 6:54 PM EDT 3:44 AM EDT
Length of Visible Light 15h 51m
Length of Day
14h 46m
Waxing Gibbous, 93% of the Moon is Illuminated
Jul 20
Waxing Gibbous
Jul 22
Full
Jul 29
Last Quarter
Aug 6
New
Aug 14
First Quarter

Hourly Weather History & Observations

Time (EDT) Temp. Dew Point Humidity Pressure Visibility Wind Dir Wind Speed Gust Speed Precip Events Conditions
12:08 AM 69.8 °F 64.4 °F 83% 29.91 in 10.0 mi West 8.1 mph - 0.01 in Rain Light Rain
12:53 AM 69.1 °F 64.9 °F 87% 29.87 in 10.0 mi West 8.1 mph - 0.02 in Rain Light Rain
1:53 AM 68.0 °F 64.9 °F 90% 29.83 in 5.0 mi South 4.6 mph - 0.12 in Rain Rain
2:53 AM 68.0 °F 64.9 °F 90% 29.82 in 10.0 mi SSW 8.1 mph - 0.09 in Rain Light Rain
3:40 AM 69.8 °F 64.4 °F 83% 29.83 in 2.5 mi ENE 6.9 mph - 0.14 in Rain Heavy Rain
3:53 AM 68.0 °F 64.9 °F 90% 29.84 in - West 4.6 mph - 0.57 in   Unknown
4:01 AM 68.0 °F 66.2 °F 94% 29.86 in 0.5 mi South 5.8 mph - 0.21 in Fog , Rain Heavy Rain
4:08 AM 68.0 °F 64.4 °F 88% 29.88 in 1.2 mi WSW 12.7 mph - 0.26 in Rain Heavy Rain
4:16 AM 68.0 °F 64.4 °F 88% 29.86 in 3.0 mi SW 8.1 mph - 0.28 in Rain Rain
4:53 AM 68.0 °F 64.0 °F 87% 29.84 in 7.0 mi SW 5.8 mph - 0.34 in Rain Light Rain
5:53 AM 66.9 °F 64.0 °F 90% 29.86 in 5.0 mi SSW 5.8 mph - 0.14 in Rain Rain
6:53 AM 66.9 °F 64.0 °F 90% 29.81 in 10.0 mi South 10.4 mph - 0.14 in Rain Light Rain
7:53 AM 68.0 °F 64.0 °F 87% 29.89 in 2.5 mi SW 9.2 mph 19.6 mph 0.19 in Rain Heavy Rain
8:13 AM 68.0 °F 64.4 °F 88% 29.87 in 7.0 mi SSW 18.4 mph 25.3 mph 0.08 in Rain Light Rain
8:53 AM 68.0 °F 64.0 °F 87% 29.80 in 10.0 mi South 17.3 mph 28.8 mph 0.13 in Rain Light Rain
9:49 AM 69.8 °F 64.4 °F 83% 29.87 in 10.0 mi WSW 9.2 mph - 0.00 in   Mostly Cloudy
9:53 AM 69.1 °F 64.9 °F 87% 29.85 in 10.0 mi WSW 9.2 mph - 0.00 in   Mostly Cloudy
10:06 AM 69.8 °F 64.4 °F 83% 29.87 in 10.0 mi WSW 9.2 mph - N/A   Overcast
10:53 AM 71.1 °F 66.0 °F 84% 29.85 in 10.0 mi SW 8.1 mph - N/A   Mostly Cloudy
11:01 AM 71.6 °F 66.2 °F 83% 29.87 in 10.0 mi SW 12.7 mph 17.3 mph N/A   Scattered Clouds
11:53 AM 73.9 °F 66.0 °F 76% 29.86 in 10.0 mi WSW 9.2 mph - N/A   Partly Cloudy
12:53 PM 75.9 °F 66.0 °F 71% 29.85 in 10.0 mi West 9.2 mph - N/A   Clear
1:48 PM 78.8 °F 66.2 °F 65% 29.87 in 10.0 mi West 10.4 mph - N/A   Mostly Cloudy
1:53 PM 79.0 °F 66.9 °F 66% 29.85 in 10.0 mi WSW 10.4 mph - N/A   Mostly Cloudy
2:04 PM 78.8 °F 66.2 °F 65% 29.87 in 10.0 mi West 10.4 mph - N/A   Mostly Cloudy
2:31 PM 77.0 °F 66.2 °F 69% 29.88 in 10.0 mi West 11.5 mph - N/A   Overcast
2:50 PM 75.2 °F 66.2 °F 73% 29.88 in 10.0 mi WNW 6.9 mph - N/A   Overcast
2:53 PM 75.9 °F 66.9 °F 74% 29.86 in 10.0 mi NW 6.9 mph - N/A   Overcast
3:43 PM 73.4 °F 69.8 °F 88% 29.88 in 10.0 mi West 8.1 mph - 0.03 in   Overcast
3:50 PM 75.2 °F 69.8 °F 83% 29.88 in 9.0 mi West 9.2 mph - 0.03 in   Mostly Cloudy
3:53 PM 75.0 °F 70.0 °F 84% 29.86 in 9.0 mi West 9.2 mph - 0.03 in   Mostly Cloudy
4:31 PM 75.2 °F 69.8 °F 83% 29.87 in 10.0 mi West 6.9 mph - N/A   Mostly Cloudy
4:43 PM 77.0 °F 69.8 °F 78% 29.87 in 10.0 mi WSW 6.9 mph - N/A   Mostly Cloudy
4:53 PM 75.9 °F 69.1 °F 79% 29.86 in 10.0 mi West 6.9 mph - N/A   Mostly Cloudy
5:22 PM 77.0 °F 66.2 °F 69% 29.88 in 10.0 mi NW 6.9 mph - N/A   Scattered Clouds
5:53 PM 77.0 °F 64.0 °F 64% 29.86 in 10.0 mi WNW 4.6 mph - N/A   Clear
6:53 PM 78.1 °F 64.0 °F 62% 29.86 in 10.0 mi North 3.5 mph - N/A   Clear
7:53 PM 75.9 °F 66.0 °F 71% 29.87 in 10.0 mi Calm Calm - N/A   Clear
8:53 PM 72.0 °F 66.9 °F 84% 29.89 in 10.0 mi Calm Calm - N/A   Clear
9:53 PM 69.1 °F 66.0 °F 90% 29.91 in 7.0 mi Calm Calm - N/A   Clear
10:53 PM 68.0 °F 64.0 °F 87% 29.92 in 7.0 mi Calm Calm - N/A   Clear
11:53 PM 66.9 °F 64.0 °F 90% 29.93 in 2.0 mi Calm Calm - N/A   Clear